Wind_Speed
76 77 72 70 71 67 69 62 51 55 58 52 46 45 39 37 35 38 37 37 36 31 32 32 33 37 39 37 33 31 30 28 26 27 28 27 25 24 22 21 17 17 15 13 14 15 16 15 16 16 16 17 17 19
80 73 73 75 72 71 70 64 59 54 52 46 44 41 39 36 35 38 39 41 39 33 32 33 33 37 38 38 35 31 30 32 29 27 29 29 27 24 24 23 22 21 20 17 16 17 19 17 17 17 18 18 20 22
79 79 77 76 76 74 72 65 56 53 49 47 44 40 38 38 38 38 39 39 36 32 33 33 34 36 37 39 37 32 32 36 33 29 30 30 28 26 25 26 25 25 24 20 18 20 20 19 19 20 21 22 23 22
74 69 78 80 75 76 68 62 56 53 49 46 43 41 39 39 39 37 38 39 36 33 32 33 35 35 39 39 36 35 35 37 36 33 31 32 30 28 26 26 26 26 24 24 22 23 21 20 22 21 22 22 22 20
70 66 69 69 66 65 58 58 56 50 45 42 38 40 39 38 39 38 38 36 34 33 33 31 32 34 37 37 35 36 37 38 38 37 34 31 30 31 30 29 25 26 25 27 26 26 25 24 24 24 23 21 20 20
68 65 58 60 57 55 53 59 54 39 39 40 38 41 39 39 40 38 38 36 33 37 37 31 31 33 34 37 38 39 37 36 38 38 33 30 31 34 33 28 22 28 28 31 27 27 26 26 27 22 21 20 20 22
73 58 54 53 56 50 50 53 47 41 37 41 42 41 40 39 40 38 37 34 37 38 37 33 28 29 33 38 39 37 37 37 37 36 34 32 34 37 36 28 21 27 28 33 28 30 26 26 20 18 19 20 21 23
78 67 61 56 53 50 45 45 46 43 40 45 44 41 39 41 40 35 32 33 37 38 37 32 25 27 32 37 37 36 37 38 36 35 35 34 35 40 40 25 24 27 30 35 30 32 27 24 19 18 19 20 22 23
80 72 66 61 51 48 39 37 36 38 43 47 45 42 40 42 35 30 32 36 37 36 34 28 24 25 31 35 37 36 38 38 39 38 39 43 41 46 35 32 27 29 34 33 33 29 25 21 19 18 19 20 22 23
78 57 58 61 59 53 46 45 46 47 49 49 46 43 41 37 31 32 35 36 35 34 31 26 22 28 34 34 35 36 39 43 45 46 49 52 49 42 41 42 31 33 36 32 29 26 23 19 18 17 18 19 21 24
82 66 61 68 61 51 44 46 47 51 51 49 47 42 40 36 35 35 37 36 34 32 26 19 27 32 34 33 35 39 42 47 49 45 49 53 50 54 56 47 35 40 33 34 26 24 21 19 17 17 17 18 21 24
97 88 77 67 63 52 54 53 50 52 50 45 45 44 40 39 39 38 37 34 31 28 21 26 29 30 33 32 36 41 43 45 46 48 51 47 25 29 33 36 40 37 34 26 21 22 19 17 16 15 16 19 21 23
90 87 86 70 71 64 59 57 54 53 49 48 48 46 43 44 43 41 37 29 24 20 25 29 29 28 30 33 37 38 42 47 44 40 26 13 9 25 34 38 37 36 29 21 21 20 17 15 13 14 16 19 21 23
88 77 92 78 78 67 62 61 58 54 53 54 52 50 48 41 39 37 31 24 26 25 28 31 30 29 32 32 33 33 39 36 27 18 19 13 25 29 34 36 34 31 23 20 19 17 15 13 13 14 17 18 20 22
82 82 81 77 72 67 62 61 59 58 57 57 56 53 46 41 39 36 33 29 27 27 30 31 29 30 28 27 28 30 28 18 19 20 10 18 26 30 30 33 31 26 20 18 16 15 14 13 12 14 15 17 19 20
87 80 78 73 68 68 64 58 61 60 59 58 55 51 48 44 42 39 33 31 29 31 34 31 28 26 24 23 21 17 10 13 18 18 9 20 27 30 33 33 29 23 19 16 16 15 13 12 13 13 14 16 18 18
87 83 81 76 71 62 62 65 62 63 61 55 52 50 49 46 42 39 36 32 31 35 32 32 27 24 20 19 13 8 11 19 21 15 10 26 28 27 36 32 27 22 19 17 16 14 12 12 12 12 14 15 16 16
87 83 76 77 71 64 66 64 65 63 58 54 52 50 49 47 41 39 37 33 33 34 35 32 26 22 18 17 16 16 24 24 18 15 8 23 27 31 32 28 25 22 21 18 16 14 13 11 11 12 13 14 15 15
85 77 75 71 71 68 66 65 63 58 53 52 51 50 47 45 42 41 37 35 38 40 41 34 26 22 13 17 19 13 23 29 24 22 17 23 27 35 38 34 28 25 22 19 17 15 13 10 11 12 13 13 13 14
75 73 74 68 63 64 67 67 61 60 57 53 52 51 46 42 39 37 38 39 41 43 41 33 25 23 22 21 19 17 20 29 26 23 24 30 36 36 37 35 30 29 26 22 19 16 12 10 11 12 12 11 11 13
64 67 64 65 69 69 68 63 60 58 54 53 53 48 41 39 40 41 41 43 45 41 34 26 26 26 25 26 21 22 17 29 30 30 33 32 39 40 38 35 31 28 25 23 20 16 13 11 11 11 10 10 10 13
59 62 65 67 67 65 62 59 57 55 54 52 51 47 44 42 41 41 42 43 41 37 31 28 29 28 30 30 29 23 16 27 37 32 36 36 35 42 39 34 30 29 27 25 21 16 13 11 10 9 8 9 9 13
61 62 63 62 59 56 56 55 55 54 50 47 43 42 40 38 40 42 45 44 41 36 32 32 32 31 33 34 32 27 21 22 39 33 36 44 44 42 40 35 31 30 26 25 22 17 13 11 10 8 7 7 8 12
58 61 61 57 55 52 53 52 49 46 44 44 43 40 35 38 40 42 42 39 36 35 35 35 33 32 34 34 31 31 30 23 39 36 39 45 51 45 42 38 35 32 28 24 22 18 14 11 9 7 7 7 8 11
59 57 57 54 52 50 49 46 46 46 45 43 41 42 39 38 40 42 40 35 35 35 35 36 34 33 35 38 36 34 34 28 40 41 43 54 45 42 42 40 37 32 28 25 23 18 14 11 8 7 8 8 8 10
51 47 47 46 46 44 41 38 37 37 37 39 40 39 38 38 40 38 31 32 34 36 39 41 39 39 40 41 39 37 37 33 46 46 44 49 56 48 43 40 38 31 29 28 24 19 16 12 8 8 9 9 9 10
47 42 41 37 33 31 32 34 35 36 36 36 34 33 35 36 35 29 30 38 40 42 45 45 45 44 44 43 42 42 40 39 49 48 46 46 50 50 45 42 40 38 35 31 25 20 18 14 11 9 10 10 9 10
35 33 31 32 33 36 38 38 38 37 34 33 33 32 35 35 29 29 29 32 38 42 44 46 46 44 44 45 47 46 46 48 56 51 50 47 47 48 49 48 44 33 30 29 24 21 20 17 14 12 12 11 9 10
42 44 43 40 39 39 36 33 28 26 27 28 28 30 31 31 27 26 29 35 40 44 48 51 49 49 50 52 50 50 51 58 56 53 51 49 49 51 52 48 36 30 30 27 24 22 20 19 17 14 13 12 10 10
36 34 32 32 32 31 29 28 27 27 27 29 31 32 28 26 19 27 31 33 34 37 44 46 41 42 45 48 48 50 59 60 54 52 51 49 53 55 50 43 37 35 32 27 24 22 22 22 19 16 15 13 11 11
32 31 32 33 33 31 31 31 31 29 31 33 34 33 29 31 31 31 32 31 32 44 40 35 31 31 34 41 48 59 61 59 56 53 51 55 54 52 47 44 41 36 33 29 26 25 23 21 19 18 18 15 13 12
34 33 32 32 30 28 29 30 31 29 27 29 32 31 33 37 38 39 40 41 37 37 35 37 37 34 33 41 50 63 59 57 53 51 50 55 55 51 48 46 41 38 33 28 27 24 22 21 20 19 19 16 14 13
29 31 32 31 30 30 31 30 31 30 28 30 32 34 35 37 42 38 35 34 31 34 37 36 34 32 35 41 53 59 60 60 62 57 54 53 52 51 48 43 40 37 33 29 27 23 21 20 19 18 19 17 15 14
Wind_Direction
245 252 252 254 255 256 263 274 272 274 272 271 274 277 274 273 262 258 261 261 261 258 255 256 257 260 262 264 270 276 276 272 266 267 267 274 285 269 273 259 254 255 255 266 279 289 290 291 293 287 286 290 289 288
241 241 247 252 256 259 264 268 275 270 268 267 274 270 269 261 258 260 260 260 260 260 258 255 252 258 259 261 264 272 277 274 270 262 260 269 275 278 263 262 254 253 256 257 274 283 288 293 292 286 288 290 288 293
247 248 245 250 253 255 259 261 266 265 265 268 269 265 262 257 256 258 258 259 261 260 254 254 253 257 255 256 261 268 273 271 269 264 259 258 264 272 272 260 254 254 256 259 268 278 285 292 291 287 287 287 291 294
243 246 250 251 248 254 258 257 253 258 263 265 263 262 260 254 258 256 256 258 262 259 252 250 251 254 257 256 260 267 270 271 268 266 258 255 257 264 272 264 258 257 262 263 266 271 278 285 288 282 279 284 291 289
245 245 246 245 252 253 256 260 257 255 258 255 259 261 259 255 256 257 257 259 260 257 251 247 253 259 260 259 262 266 269 268 267 266 259 252 254 260 263 265 256 257 256 257 258 268 274 281 285 281 284 286 287 286
241 240 244 243 249 253 255 258 252 252 253 250 254 256 256 255 255 258 257 257 256 254 253 248 252 258 261 262 265 267 265 260 263 265 262 256 251 254 261 258 258 250 255 258 258 268 274 282 286 277 276 279 281 285
231 236 236 244 243 245 249 246 248 246 255 254 250 251 252 254 254 254 255 252 251 252 257 259 254 256 263 265 265 263 262 262 259 261 263 257 251 253 261 260 260 243 251 255 257 267 271 288 273 262 267 272 278 288
220 226 236 245 241 241 246 249 242 240 243 244 243 245 247 249 249 249 248 246 250 256 260 263 260 261 257 258 260 261 263 264 261 259 260 257 252 253 261 265 255 236 241 249 249 260 274 283 260 256 262 272 283 296
214 222 235 232 238 249 241 230 243 242 242 237 235 237 238 243 244 242 246 250 252 256 263 266 268 257 253 254 256 260 262 262 261 261 259 257 255 258 268 260 246 235 238 242 243 256 275 267 253 252 264 276 290 301
214 223 229 226 226 241 235 235 243 241 231 226 229 233 237 242 242 242 245 248 251 256 262 267 256 249 249 254 261 264 267 270 271 268 262 259 257 258 259 251 242 227 234 229 240 257 264 256 251 257 269 283 296 302
217 220 222 220 223 232 235 233 234 226 220 222 226 231 237 238 238 239 243 247 253 258 265 257 242 245 253 258 262 266 273 271 269 272 272 268 265 263 254 240 230 221 223 224 238 254 252 250 254 263 276 289 296 304
225 227 218 219 220 230 235 233 230 224 222 225 229 232 235 236 236 240 244 249 256 260 259 244 246 252 258 265 268 271 275 276 283 285 283 286 278 248 211 204 203 213 209 218 237 246 248 247 253 267 280 289 299 309
221 226 226 223 232 222 230 232 230 224 223 223 225 227 228 232 234 240 248 256 263 261 241 242 252 258 261 268 272 274 277 285 289 283 289 303 193 165 169 183 200 200 205 219 234 239 239 243 252 266 279 291 306 311
216 216 224 222 217 220 224 227 226 223 224 224 224 226 227 233 241 246 251 253 249 245 244 240 250 255 261 271 271 286 297 283 278 273 293 219 159 157 179 189 193 194 202 218 229 230 233 237 249 266 281 299 304 310
211 213 212 207 209 216 220 223 225 224 224 225 225 226 231 235 242 245 243 243 248 243 243 242 250 255 264 272 282 309 290 278 275 271 270 188 170 165 181 188 186 190 201 215 225 227 227 237 252 270 289 298 301 314
198 199 202 205 208 213 217 221 221 221 221 223 226 229 231 234 239 241 240 242 243 239 239 242 252 253 265 268 298 309 255 296 274 270 239 184 175 175 180 180 188 193 199 212 218 218 224 238 257 277 291 294 308 322
194 196 199 202 206 211 214 216 216 216 218 222 225 227 230 231 231 235 238 240 236 236 237 240 247 248 262 271 306 245 225 263 268 262 238 187 181 177 178 182 190 194 199 206 208 214 226 242 262 282 285 297 314 327
191 194 196 200 202 206 209 212 215 216 218 221 223 224 227 230 230 232 236 240 233 233 235 239 240 239 249 263 263 224 232 253 274 248 227 195 191 182 178 180 190 199 202 200 204 215 228 243 267 278 285 303 315 332
188 189 192 197 204 208 207 208 211 216 217 221 222 223 226 228 229 230 233 233 227 229 233 235 238 237 247 255 253 251 234 238 254 238 211 197 204 187 191 188 189 199 204 201 205 216 226 244 266 278 288 303 316 334
185 190 194 200 204 207 208 208 211 212 214 217 220 222 221 225 228 229 229 227 228 231 235 236 240 236 238 247 248 255 250 229 243 231 200 196 188 189 198 199 200 205 199 197 206 214 225 243 264 277 286 299 317 337
185 192 197 201 201 205 210 212 214 216 215 216 218 220 221 223 225 227 226 227 230 233 236 233 236 237 239 244 250 246 266 228 226 211 193 197 194 196 201 204 203 210 213 202 203 210 225 243 262 273 285 300 318 336
188 191 192 194 197 200 206 211 213 216 217 218 221 220 220 223 225 226 227 229 231 233 233 230 233 236 240 244 246 237 260 241 220 219 200 203 206 207 208 208 207 212 216 218 207 208 225 241 256 268 283 296 319 334
184 184 187 192 196 200 203 206 209 213 216 220 222 222 221 225 226 228 229 229 230 230 228 229 233 236 238 241 247 243 239 255 220 224 212 211 212 209 209 211 211 217 216 224 219 213 221 235 247 260 274 286 314 330
181 181 185 189 193 198 205 208 208 211 214 218 220 221 222 224 226 231 232 233 232 230 229 231 235 238 241 243 246 249 242 258 221 216 209 200 209 207 209 210 212 216 215 221 224 219 221 230 238 250 265 277 306 326
179 183 188 195 201 205 206 205 205 208 211 215 220 222 223 226 231 233 236 236 236 235 237 239 240 241 243 244 241 243 244 252 220 211 211 202 197 205 210 211 215 212 213 216 218 217 221 224 230 244 257 269 295 320
189 195 199 203 204 204 205 206 207 210 215 221 226 230 233 233 233 237 240 241 243 243 242 240 238 237 237 237 238 236 241 239 214 206 207 207 209 213 212 210 212 208 214 218 214 215 217 219 228 242 251 263 286 314
201 201 200 199 199 202 207 210 215 222 226 231 235 238 233 235 238 238 239 235 235 237 238 238 237 238 238 240 238 235 237 232 208 202 204 203 204 206 207 208 209 211 212 213 212 213 218 221 231 242 249 258 279 308
191 193 198 203 207 209 215 219 222 226 227 222 220 226 231 239 244 243 242 238 242 244 246 245 242 243 243 243 241 241 236 221 201 198 201 198 202 204 208 211 215 214 214 215 214 216 220 225 233 239 246 255 274 301
196 199 203 209 214 217 221 224 225 223 220 221 229 233 233 237 239 239 238 242 247 251 252 253 253 252 251 251 245 233 223 206 193 197 195 199 204 207 210 213 213 211 213 217 218 220 222 228 233 234 240 251 268 293
206 210 212 215 218 226 230 225 224 223 221 222 228 233 233 228 244 239 244 247 244 246 246 251 250 244 239 234 223 211 200 190 189 192 194 201 208 210 210 212 208 207 211 213 218 220 224 227 229 232 239 247 262 285
216 219 222 222 223 226 225 224 226 232 234 235 236 238 239 239 247 256 255 254 265 249 240 236 235 235 224 215 206 193 189 187 188 191 196 202 205 206 206 204 203 206 209 211 217 220 225 229 228 232 238 244 257 278
207 208 212 214 217 222 229 233 232 235 238 240 243 254 252 250 250 253 260 256 260 247 225 220 221 224 222 213 200 192 186 185 187 190 197 200 202 201 198 202 204 207 208 209 217 223 228 229 231 235 237 244 255 272
220 217 217 219 227 235 233 234 240 248 249 248 248 248 253 252 252 252 244 242 237 221 219 220 223 222 216 209 202 193 189 188 187 186 196 198 198 193 196 201 207 207 208 211 219 225 229 231 232 238 241 245 255 269
Height
5610 5619 5627 5633 5641 5645 5649 5656 5659 5662 5664 5664 5666 5665 5666 5666 5667 5669 5672 5671 5672 5677 5678 5681 5685 5684 5684 5686 5689 5690 5692 5693 5693 5694 5695 5697 5698 5698 5699 5700 5700 5700 5700 5701 5702 5702 5703 5702 5702 5702 5701 5700 5700 5698
5590 5601 5609 5616 5623 5630 5635 5641 5645 5648 5650 5652 5654 5654 5654 5655 5657 5659 5662 5661 5662 5668 5672 5672 5673 5675 5677 5679 5681 5683 5685 5683 5685 5686 5688 5690 5692 5693 5694 5696 5695 5697 5697 5697 5699 5698 5698 5698 5698 5697 5697 5696 5695 5694
5573 5583 5591 5599 5607 5613 5619 5625 5631 5634 5637 5639 5642 5642 5642 5644 5646 5649 5651 5652 5655 5658 5661 5662 5666 5666 5670 5669 5672 5677 5676 5674 5676 5678 5680 5681 5684 5687 5688 5689 5691 5691 5692 5694 5694 5693 5692 5693 5693 5693 5692 5691 5690 5689
5551 5563 5572 5580 5590 5599 5604 5609 5615 5621 5622 5626 5628 5630 5631 5633 5635 5639 5641 5642 5646 5648 5650 5652 5654 5657 5660 5663 5664 5667 5668 5666 5667 5669 5671 5673 5676 5679 5681 5683 5685 5687 5688 5689 5689 5687 5688 5687 5688 5687 5687 5686 5686 5684
5534 5544 5553 5563 5573 5581 5587 5593 5600 5606 5608 5613 5615 5619 5620 5622 5625 5629 5631 5633 5636 5640 5640 5643 5646 5649 5650 5654 5656 5656 5658 5657 5657 5659 5661 5665 5668 5669 5672 5675 5680 5681 5682 5682 5683 5682 5682 5682 5682 5681 5681 5681 5680 5678
5515 5525 5537 5548 5557 5566 5573 5579 5586 5590 5596 5600 5603 5607 5610 5612 5615 5619 5623 5626 5628 5627 5628 5635 5639 5641 5642 5645 5645 5645 5645 5647 5647 5649 5653 5656 5659 5659 5662 5668 5673 5674 5674 5674 5677 5676 5677 5676 5676 5675 5675 5675 5674 5672
5501 5511 5523 5533 5543 5553 5559 5565 5572 5578 5583 5588 5593 5596 5598 5602 5605 5609 5616 5619 5618 5616 5620 5624 5631 5635 5633 5631 5632 5633 5635 5637 5639 5641 5644 5646 5649 5648 5652 5660 5667 5666 5668 5667 5670 5670 5672 5670 5670 5669 5669 5669 5668 5667
5483 5496 5508 5518 5529 5538 5544 5551 5559 5565 5570 5576 5581 5585 5588 5590 5594 5600 5605 5606 5607 5608 5611 5615 5623 5626 5625 5623 5623 5624 5626 5627 5630 5632 5636 5636 5637 5637 5640 5656 5658 5658 5659 5660 5662 5663 5665 5665 5664 5664 5664 5664 5663 5661
5465 5481 5494 5505 5516 5525 5532 5540 5546 5551 5558 5563 5568 5572 5575 5579 5587 5591 5593 5596 5597 5601 5602 5609 5614 5615 5614 5612 5613 5615 5616 5618 5620 5624 5625 5622 5624 5626 5640 5645 5648 5649 5650 5652 5655 5657 5658 5658 5658 5658 5659 5658 5657 5655
5446 5462 5477 5492 5504 5512 5520 5527 5533 5539 5543 5549 5555 5561 5566 5573 5580 5582 5583 5586 5588 5590 5596 5601 5605 5604 5602 5604 5604 5606 5606 5606 5608 5612 5606 5607 5613 5622 5626 5630 5637 5639 5640 5646 5649 5651 5651 5652 5652 5653 5653 5653 5651 5649
5428 5445 5462 5477 5489 5499 5507 5513 5519 5524 5529 5536 5544 5550 5558 5564 5568 5572 5574 5577 5579 5584 5591 5594 5592 5591 5593 5596 5596 5595 5594 5593 5593 5596 5592 5593 5600 5604 5604 5614 5624 5628 5632 5638 5642 5644 5645 5646 5647 5648 5648 5648 5646 5643
5411 5428 5448 5461 5475 5484 5493 5500 5505 5513 5521 5530 5537 5542 5548 5552 5558 5563 5566 5569 5571 5578 5584 5582 5582 5585 5586 5588 5587 5586 5584 5580 5579 5580 5576 5576 5580 5575 5585 5602 5611 5618 5625 5631 5635 5638 5639 5641 5642 5643 5643 5643 5641 5638
5393 5411 5430 5446 5460 5471 5478 5486 5493 5502 5512 5518 5522 5528 5537 5541 5546 5551 5556 5561 5569 5572 5572 5573 5575 5577 5579 5579 5579 5578 5575 5572 5568 5566 5568 5570 5568 5571 5581 5592 5603 5613 5619 5625 5630 5632 5634 5635 5637 5638 5638 5637 5635 5632
5377 5395 5412 5433 5446 5454 5463 5471 5480 5492 5499 5503 5510 5517 5523 5531 5537 5542 5552 5559 5558 5562 5564 5566 5568 5571 5571 5572 5571 5570 5566 5561 5561 5565 5566 5565 5563 5568 5580 5590 5599 5606 5614 5620 5624 5626 5629 5631 5633 5633 5634 5632 5630 5628
5362 5381 5399 5417 5430 5439 5449 5460 5471 5478 5484 5490 5498 5506 5515 5524 5529 5536 5542 5547 5551 5553 5555 5557 5560 5563 5564 5566 5567 5564 5559 5560 5562 5562 5562 5564 5566 5572 5581 5590 5596 5602 5608 5615 5619 5622 5624 5627 5628 5629 5628 5627 5625 5623
5350 5369 5382 5402 5415 5426 5438 5448 5451 5463 5469 5478 5489 5501 5509 5514 5520 5526 5533 5537 5542 5545 5547 5549 5551 5556 5559 5560 5561 5557 5557 5558 5557 5559 5561 5564 5570 5576 5582 5587 5594 5599 5605 5610 5614 5617 5620 5622 5624 5624 5623 5622 5621 5619
5334 5345 5369 5390 5403 5416 5426 5427 5438 5447 5458 5471 5483 5492 5499 5504 5511 5515 5521 5527 5532 5536 5539 5541 5546 5550 5553 5554 5554 5552 5556 5554 5555 5559 5560 5565 5569 5574 5579 5585 5592 5597 5601 5606 5610 5613 5616 5618 5619 5619 5619 5618 5616 5614
5321 5343 5364 5376 5390 5398 5403 5416 5426 5438 5452 5465 5473 5481 5488 5495 5501 5505 5512 5518 5524 5528 5530 5534 5539 5544 5546 5548 5549 5548 5549 5551 5554 5559 5561 5567 5572 5575 5579 5584 5590 5595 5598 5601 5605 5609 5612 5614 5614 5614 5614 5614 5612 5610
5317 5340 5353 5365 5373 5387 5398 5407 5420 5434 5447 5456 5464 5472 5479 5485 5489 5495 5502 5508 5512 5516 5519 5526 5533 5537 5539 5541 5544 5545 5544 5547 5552 5555 5558 5563 5567 5573 5573 5577 5583 5589 5594 5597 5601 5605 5608 5609 5610 5610 5610 5609 5607 5605
5322 5336 5347 5357 5371 5380 5387 5399 5415 5423 5433 5446 5453 5460 5469 5475 5479 5485 5491 5496 5501 5506 5511 5520 5528 5530 5532 5534 5538 5539 5538 5543 5549 5554 5557 5560 5564 5570 5574 5577 5582 5586 5588 5592 5597 5601 5603 5605 5605 5606 5606 5605 5603 5601
5317 5327 5342 5353 5360 5371 5381 5396 5407 5418 5426 5436 5443 5452 5461 5463 5469 5475 5480 5485 5491 5500 5508 5516 5520 5522 5524 5527 5532 5534 5534 5538 5543 5550 5553 5557 5562 5566 5570 5575 5579 5584 5588 5589 5592 5596 5599 5600 5601 5602 5602 5600 5599 5598
5308 5322 5336 5346 5356 5365 5378 5391 5402 5411 5421 5429 5433 5442 5449 5453 5459 5464 5470 5476 5485 5494 5501 5508 5510 5513 5516 5519 5524 5527 5529 5532 5537 5545 5549 5554 5558 5562 5568 5573 5577 5580 5584 5587 5589 5592 5594 5596 5597 5597 5597 5596 5596 5594
5312 5325 5336 5345 5355 5366 5376 5386 5394 5404 5413 5419 5427 5433 5439 5444 5449 5451 5458 5468 5476 5484 5491 5495 5499 5503 5506 5510 5515 5520 5522 5525 5530 5536 5542 5549 5554 5558 5563 5569 5572 5576 5580 5586 5588 5588 5589 5591 5592 5593 5593 5592 5592 5590
5315 5324 5332 5342 5351 5361 5370 5378 5389 5398 5404 5411 5418 5425 5430 5434 5438 5440 5451 5461 5469 5473 5478 5483 5488 5493 5497 5502 5507 5512 5515 5518 5523 5529 5535 5542 5548 5553 5559 5563 5567 5572 5576 5581 5584 5585 5585 5586 5587 5588 5588 5588 5588 5586
5314 5321 5329 5338 5348 5359 5367 5374 5381 5390 5397 5404 5409 5415 5421 5424 5426 5432 5444 5453 5457 5462 5467 5472 5478 5483 5488 5493 5497 5501 5505 5510 5515 5520 5526 5532 5540 5547 5552 5557 5562 5568 5572 5576 5578 5580 5581 5582 5582 5583 5584 5584 5584 5582
5309 5320 5331 5340 5347 5356 5363 5370 5378 5385 5393 5398 5402 5407 5409 5413 5416 5426 5438 5443 5447 5451 5454 5458 5463 5469 5475 5481 5486 5489 5491 5495 5502 5510 5518 5524 5531 5539 5546 5552 5558 5563 5567 5571 5573 5574 5576 5577 5578 5579 5579 5580 5579 5578
5315 5323 5331 5338 5346 5355 5361 5367 5374 5380 5385 5390 5395 5400 5402 5405 5411 5424 5429 5429 5433 5435 5438 5444 5450 5457 5463 5468 5472 5476 5479 5484 5493 5500 5506 5514 5523 5532 5541 5547 5551 5554 5558 5563 5566 5568 5570 5572 5573 5574 5575 5575 5574 5573
5315 5323 5331 5338 5344 5351 5356 5363 5369 5374 5380 5383 5387 5389 5393 5398 5409 5414 5415 5416 5420 5422 5427 5431 5437 5441 5446 5451 5456 5461 5467 5472 5481 5489 5497 5506 5517 5525 5533 5538 5543 5551 5556 5559 5561 5563 5565 5567 5568 5569 5570 5570 5569 5568
5314 5321 5328 5334 5341 5347 5352 5358 5363 5368 5373 5376 5380 5383 5388 5393 5397 5398 5401 5403 5406 5409 5410 5412 5416 5420 5424 5430 5436 5443 5452 5462 5472 5483 5492 5501 5510 5519 5526 5533 5542 5548 5550 5553 5556 5558 5560 5562 5563 5563 5564 5564 5564 5563
5313 5318 5324 5329 5335 5340 5345 5350 5356 5360 5364 5367 5370 5374 5378 5382 5385 5387 5389 5391 5392 5393 5393 5395 5399 5403 5407 5411 5418 5428 5440 5455 5466 5476 5485 5495 5504 5512 5521 5529 5534 5538 5543 5547 5550 5552 5554 5555 5556 5558 5559 5558 5558 5558
5308 5314 5319 5324 5330 5335 5339 5343 5347 5350 5354 5357 5360 5363 5368 5370 5372 5375 5377 5380 5381 5381 5383 5387 5389 5393 5397 5401 5409 5420 5433 5445 5457 5467 5477 5486 5497 5506 5515 5521 5525 5531 5535 5539 5542 5544 5547 5549 5551 5552 5553 5553 5553 5553
5307 5312 5317 5322 5326 5330 5333 5336 5339 5342 5345 5347 5350 5353 5355 5357 5361 5364 5368 5368 5368 5370 5375 5377 5381 5386 5390 5395 5403 5412 5424 5436 5448 5460 5470 5480 5489 5498 5507 5513 5519 5524 5529 5533 5536 5538 5541 5543 5544 5546 5547 5547 5547 5547
5303 5307 5311 5315 5319 5322 5326 5328 5331 5333 5335 5338 5341 5342 5343 5345 5346 5351 5353 5354 5357 5360 5364 5369 5373 5378 5385 5392 5398 5407 5417 5427 5439 5450 5462 5474 5483 5492 5500 5507 5513 5518 5523 5526 5530 5532 5535 5537 5538 5539 5540 5541 5541 5541